Location: Rounton
(54.4000°N, 1.3500°W)
Time: 21:35:23
(UTC+00:00)

Explorer 7 - Pass Details

Date: 08 December 2021
Orbit: 483 x 674 km, 50.3° (Epoch: 17 January)

Event Time Altitude Azimuth Distance (km) Brightness Sun altitude
Rises 03:47:44 0° 200° (SSW) 2,884 - -37.0°
Reaches altitude 10° 03:50:57 10° 178° (S) 1,940 - -36.5°
Maximum altitude 03:53:26 15° 143° (SE) 1,615 - -36.2°
Exits shadow 03:55:30 11° 113° (ESE) 1,806 10.0 -35.9°
Drops below altitude 10° 03:55:51 10° 109° (ESE) 1,875 10.1 -35.8°
Sets 03:58:52 0° 85° (E) 2,730 11.4 -35.4°
